Location: Ostrava
(49.8330°N, 18.2830°E)
Time: 12:56:32
(UTC+02:00)

Explorer 7 - Visible Passes

Search period start: 18 October 2017 00:00
Search period end: 28 October 2017 00:00
Orbit: 486 x 683 km, 50.3° (Epoch: 18 October)

Date Brightness Start Highest point End Pass type
(mag) Time Alt. Az. Time Alt. Az. Time Alt. Az.
18 Oct 9.7 03:45:10 14° E 03:45:10 14° E 03:45:45 10° E visible
18 Oct 6.6 05:21:33 51° W 05:22:25 76° SSW 05:26:14 10° ESE visible
19 Oct 9.6 03:50:45 15° E 03:50:45 15° E 03:51:26 10° E visible
19 Oct 6.7 05:27:08 46° WSW 05:28:02 60° SSW 05:31:47 10° ESE visible
20 Oct 9.6 03:56:25 15° E 03:56:25 15° E 03:57:05 10° E visible
20 Oct 7.1 05:32:47 38° WSW 05:33:35 44° SSW 05:37:13 10° SE visible
21 Oct 9.5 04:02:08 14° ESE 04:02:08 14° ESE 04:02:44 10° ESE visible
21 Oct 7.5 05:38:31 30° SW 05:39:04 32° SSW 05:42:30 10° SSE visible
22 Oct 9.6 04:07:56 12° ESE 04:07:56 12° ESE 04:08:19 10° ESE visible
22 Oct 8.0 05:44:20 22° SW 05:44:31 22° SW 05:47:32 10° SSE visible
23 Oct 8.6 05:50:15 15° SW 05:50:15 15° SW 05:52:08 10° S visible
